Regional Weather Roundup
Issued by NWS

Home | Current Version | Previous Version | Text Only | Print | Product List | Glossary On
Versions: 1 2 3 4 5 6 7 8 9 10 11 12 13 14 15 16 17 18 19 20 21 22 23 24 25 26 27 28
000
ASUS42 KTBW 240217
RWRFL
FLORIDA REGIONAL WEATHER ROUNDUP
NATIONAL WEATHER SERVICE TAMPA BAY RUSKIN FL
1000 PM EDT FRI JUN 23 2017

NOTE: "FAIR" INDICATES FEW OR NO CLOUDS BELOW 12,000 FEET WITH NO
SIGNIFICANT WEATHER AND/OR OBSTRUCTIONS TO VISIBILITY.

FLZ001>010-012>015-112-114-115-240300-
PANHANDLE FLORIDA

CITY           SKY/WX    TMP DP  RH WIND       PRES   REMARKS
PENSACOLA      MOCLDY    82  76  81 SW7       30.00R
PENSACOLA NAS  PTCLDY    81  76  84 SW10      29.99S
MILTON NAS     PTCLDY    79  76  90 SW7       30.01R
CRESTVIEW      CLEAR     79  74  84 S3        30.03R
DUKE FIELD     PTCLDY    78  75  89 S5        30.01R
VALPARAISO     PTCLDY    81  76  85 S6        30.01R
MARY ESTHER    MOCLDY    81  74  80 S9        30.00R
PANAMA CITY    FAIR      80  75  84 S5        30.02R
TYNDALL AFB    PTCLDY    80  75  82 SW7       30.03R
APALACHICOLA   CLEAR     82  78  88 SW6       30.01R

STATION/POSITION SKY/WX   TEMP    WIND        PRES    WAVE   SWELL
                          AIR SEA DIR/SP/G            HT/PER HT/PER
                          (F)     (DEG/KT/KT) (MB)    (FT/S) (FT/S)
30.1N   87.6W              81 81  190/ 12/ 14 1015.2R   4/ 6   3/ 6
29.2N   88.2W              81 82  190/ 10/ 12 1015.9
28.8N   86.0W              81 81  170/  8/ 10 1015.9R   4/ 6   3/ 6
PANAMA CITY BEAC           81 84  210/  8/  9 1016.9R
TOWER C                    81     200/  7/  8 1017.2R
28.5N   84.5W              81 83  190/  8/ 10 1015.9R   3/ 7   3/ 7

$$
FLZ011-016>038-118-127-128-134-139-239-240300-
NORTH FLORIDA

CITY           SKY/WX    TMP DP  RH WIND       PRES   REMARKS
MARIANNA       CLEAR     80  71  74 SW6       30.01R
TALLAHASSEE    PTCLDY    81  76  84 SW3       30.02R
PERRY          CLEAR     78  75  90 CALM      30.03R
CROSS CITY     CLEAR     77  70  78 CALM      30.02R
LAKE CITY      FAIR      81  70  69 W5        30.02R
GAINESVILLE    CLEAR     79  72  79 CALM      30.01R
WILLISTON      CLEAR     81  73  78 E3        30.02R
PALATKA        FAIR      82  77  83 SE7       30.02R
MAYPORT NAS    CLEAR     81  76  84 S16       30.02R
JACKSONVILLE   PTCLDY    81  74  79 SE9       30.01R
JAX NAS        PTCLDY    84  73  69 SE10      30.02R
FERNANDINA BEA FAIR      82  75  78 S9G17     30.01R
ST AUGUSTINE   CLEAR     80  75  84 MISG      30.03R
PALM COAST     FAIR      80  76  89 SE5       30.02R

STATION/POSITION SKY/WX   TEMP    WIND        PRES    WAVE   SWELL
                          AIR SEA DIR/SP/G            HT/PER HT/PER
                          (F)     (DEG/KT/KT) (MB)    (FT/S) (FT/S)
SHELL POINT      NOT AVBL
KEATON BEACH               82     250/  6/  7 1016.3R
CEDAR KEY                  82     270/  4/  6 1016.8R
FERNANDINA                 81 82  160/  9/ 14 1017.2R
30.7N   81.3W                 79                N/A     4/ 4
MAYPORT                    80 79  180/  9/ 13 1016.9R
31.4N   80.9W              82 82  170/ 17/ 21 1015.3R   4/ 4   2/10
ST AUGUSTINE               79 79  170/ 15/ 17 1016.8R

$$
FLZ040-043>046-052-053-057-058-063-144-240300-
INTERIOR CENTRAL FLORIDA

CITY           SKY/WX    TMP DP  RH WIND       PRES   REMARKS
OCALA          PTCLDY    81  74  79 SW3       30.02R
THE VILLAGES     N/A     84  75  74 MISG      29.92R
LEESBURG       PTCLDY    85  76  74 SE13      30.02R
SANFORD        CLEAR     82  73  74 SE10      30.02R
ORLANDO EXEC   CLEAR     82  75  79 SE13      30.03R
ORLANDO INTL   PTCLDY    79  75  87 SE7       30.03R
KISSIMMEE      CLEAR     83  75  77 SE8       30.04R
WINTER HAVEN   CLEAR     84  73  69 SE9       30.04R
LAKELAND       PTCLDY    84  75  74 NW6       30.02R
BARTOW         FAIR      81  73  78 SE8       30.03R
SEBRING        FAIR      85  73  66 SE13      30.04R
OKEECHOBEE     CLEAR     79  70  73 E5        30.04R

$$
FLZ041-047-054-059-064-141-147-240300-
EAST CENTRAL FLORIDA

CITY           SKY/WX    TMP DP  RH WIND       PRES   REMARKS
DAYTONA BEACH  CLEAR     82  75  79 SE7       30.03R
DELAND         PTCLDY    82  73  74 SE9       30.02R
NEW SMYRNA BEA PTCLDY    82  73  74 S13       30.03
JFK SPACE CTR  CLEAR     81  76  86 S7        30.03R
CAPE CANAVERAL CLEAR     81  76  85 S12       30.03R
PATRICK AFB    CLEAR     80  77  90 S12       30.04R
MELBOURNE      MOCLDY    83  75  77 SE8       30.04R
VERO BEACH     CLEAR     82  75  79 SE9       30.05R
FT PIERCE      CLEAR     83  75  77 SE9       30.04R
STUART         PTCLDY    82  77  83 SE7       30.06R

STATION/POSITION SKY/WX   TEMP    WIND        PRES    WAVE   SWELL
                          AIR SEA DIR/SP/G            HT/PER HT/PER
                          (F)     (DEG/KT/KT) (MB)    (FT/S) (FT/S)
28.5N   80.2W              82 81  160/ 12/ 14 1018.5
28.9N   78.5W              82 83  150/ 12/ 16 1018.0R   4/ 8   3/ 8
TRIDENT PIER               80 82  140/  8/ 12 1018.8R
28.4N   80.5W                 79                N/A     2/ 4
27.5N   80.2W                 78                N/A     2/ 4

$$
FLZ050-056-061-142-242-148-248-149-249-151-251-155-255-
160-260-240300-
WEST CENTRAL FLORIDA

CITY           SKY/WX    TMP DP  RH WIND       PRES   REMARKS
CRYSTAL RIVER  FAIR      79  73  83 CALM      30.02R
INVERNESS      FAIR      79  75  89 CALM      30.03R
BROOKSVILLE    CLEAR     79  74  84 CALM      30.03R
CLEARWATER AIR FAIR      81  75  83 NW3       30.01S
ST PETE CLEARW CLEAR     83  74  74 NW6       30.01R
TAMPA INTL     CLEAR     82  74  76 NW5       30.02R
TAMPA EXEC     CLEAR     82  73  74 CALM      30.02R
PLANT CITY     CLEAR     84  77  79 NW7       30.04R
MACDILL AFB    CLEAR     81  77  88 N5        30.01R
PETER O KNIGHT MOCLDY    84  77  79 N3        30.02R
ST PETERSBURG  CLEAR     84  74  71 NW3       30.00R
SARASOTA       MOCLDY    83  75  77 W5        30.01R
VENICE         CLOUDY    84  77  79 S7        30.02R

STATION/POSITION SKY/WX   TEMP    WIND        PRES    WAVE   SWELL
                          AIR SEA DIR/SP/G            HT/PER HT/PER
                          (F)     (DEG/KT/KT) (MB)    (FT/S) (FT/S)
27.3N   84.2W                 82                N/A     3/ 7
CLEARWATER BEACH           83 86  310/  5/  6 1016.5R
MIDDLE TAMPA BAY           83     320/  6/  7 1016.4R
VENICE                     84 88  200/  6/  8 1016.8R

$$
FLZ066-069-070-075>078-162-262-165-265-240300-
SOUTHWEST FLORIDA AND KEYS

CITY           SKY/WX    TMP DP  RH WIND       PRES   REMARKS
PUNTA GORDA    CLOUDY    81  78  91 S5        30.04R
FT MYERS       CLOUDY    81  77  88 SE3       30.02R
SOUTHWEST INTL LGT RAIN  80  75  84 CALM      30.03R
NAPLES         CLOUDY    82  32  16 CALM      30.02R
MARCO ISLAND   PTCLDY    81  75  83 SE6       30.02R
IMMOKALEE      FAIR      81  75  83 CALM      30.04R
MARATHON       PTCLDY    83  76  79 E10G21    30.01R
KEY WEST NAS   MOCLDY    83  77  82 E17       30.01R
KEY WEST INTL  CLEAR     84  76  76 E17       30.01R

STATION/POSITION SKY/WX   TEMP    WIND        PRES    WAVE   SWELL
                          AIR SEA DIR/SP/G            HT/PER HT/PER
                          (F)     (DEG/KT/KT) (MB)    (FT/S) (FT/S)
NAPLES                        87  160/  4/  5 1016.4R
DRY TORTUGAS               84     110/ 17/ 20 1015.9R
SAND KEY                   83     130/ 18/ 21 1016.5R
MOLASSES REEF              83 83  130/ 12/ 13 1016.8R

$$
FLZ067-068-071>074-168-172>174-240300-
SOUTHEAST FLORIDA

CITY           SKY/WX    TMP DP  RH WIND       PRES   REMARKS
W PALM BEACH   PTCLDY    83  73  72 SE10      30.05R
BOCA RATON     PTCLDY    82  75  78 SE8       30.04R
FT LAUDER-EXEC PTCLDY    81  73  76 E10       30.03S
FT LAUDERDALE  MOCLDY    84  75  74 SE14      30.03R
POMPANO BEACH  CLEAR     84  75  74 SE12      30.03S
PEMBROKE PINES PTCLDY    84  74  71 SE12      30.05R
OPA LOCKA      CLEAR     84  76  76 SE10      30.04R
MIAMI          PTCLDY    84  74  71 E9        30.04R
WEST KENDALL   CLEAR     83  74  74 SE7       30.03R
HOMESTEAD      CLEAR     81  77  87 SE5       30.03R

STATION/POSITION SKY/WX   TEMP    WIND        PRES    WAVE   SWELL
                          AIR SEA DIR/SP/G            HT/PER HT/PER
                          (F)     (DEG/KT/KT) (MB)    (FT/S) (FT/S)
PORT EVERGLADES            84     110/  4/  7 1017.1R
VIRGINIA KEY               84 86  100/  7/  9 1016.5R
LAKE WORTH                 82 83  140/ 12/ 14 1018.3R
FOWEY ROCKS                83 82  120/  8/  9 1017.4R
SETTLEMENT POINT           81     130/  7/  8 1018.2R

$$





USA.gov is the U.S. government's official web portal to all federal, state and local government web resources and services.